CZ-3B R/B (43684 NORAD) Tracking and Keplerian Element Data

This shows tracking and keplerian element data for the satellite.

Feedback or suggestion? Click here.




ElementValue
Catalog43684
NameCZ-3B R/B
Epoch Orbit32
Epoch Day318.82664561
Epoch Year2018
RAAN272.4868
Inclination28.3949
Eccentricity0.7232172
Argument of Perigee187.1339
Mean Anonmoly149.9413
Mean Motion2.39486548
Decay Rate0.00042836
L11 43684U 18085B 18318.82664561 .00042836 12061-6 58831-3 0 9993
L22 43684 28.3949 272.4868 7232172 187.1339 149.9413 2.39486548 320

Live tracking and technical data element details for CZ-3B R/B (NORAD 43684). CZ-3B R/B can be tracked NOW for your location showing map with azimuth and elevation plus other details from your city location.

Track the satellite on the map from your city or location and see movement details for azimuth, elevation, latitude, longitude, range, height, and movement on the map or in text.







IsCatalogInMostPopularTable: catalog: 43684, numindb: 5
Update: records affected: 1



GetName: 43684 CZ-3B R/B

Hit Count: updated at: Sat, 17 Nov 2018 02:09:52 GMT